Погода в Данкове

Россия / Воронежская область     51°17′35″N   39°31′46″E
темп.,
°C
ветер,
м/с
пор.,
м/с
влажн.,
%
обл.,
%
осадки,
мм/ч
давл.,
гПа
погр.,
м
2 июля, сб
сб200:00+9с51083100 0.0 1018329
03:00+8ссз5127982 0.0 1018316
06:00+10ссз715730 0.0 1018546
09:00+16с811645 0.0 1018897
12:00+20с911535 0.0 10171837
15:00+21ссв8125261 0.0 10172148
18:00+21ссв711570 0.0 10161574
21:00+15ссз411710 0.0 1017183
3 июля, вс
вс300:00+13ссз412810 0.0 1017224
03:00+12ссз410795 0.0 1016179
06:00+14ссз497924 0.0 1017218
09:00+20ссз576121 0.0 1016541
12:00+25с574973 0.0 10151739
15:00+22сз586099 0.0 1015603
18:00+23сз47710 1.1 1014868
21:00+18с22830 2.5 101517
4 июля, пн
пн400:00+16ссв33880 0.0 101624
03:00+15сз22890 0.0 101615
06:00+17сз34870 0.0 1016104
09:00+22с34690 0.0 1017628
12:00+25св45550 0.0 10171401
15:00+26св445126 0.0 10161592
18:00+23всв2364100 0.0 101758
21:00+19юв33720 0.0 101828
5 июля, вт
вт500:00+18юз226999 0.0 101817
03:00+18вюв006472 0.0 101911
06:00+19зсз11720 0.0 101931
09:00+23зсз22600 0.0 1019484
12:00+27зсз22460 0.0 10191779
15:00+28св123967 0.0 10192469
18:00+25зсз346348 0.0 1018163
21:00+20сз116614 0.0 101911
6 июля, ср
ср600:00+20зюз116521 0.0 101911
03:00+19з126678 0.0 101912
06:00+20зюз227080 0.0 102040
09:00+25юз23540 0.0 1019432
12:00+28юз23452 0.0 10191620
15:00+29ююз3342100 0.0 10182406
18:00+27ююв12559 0.0 1017211
21:00+22ююв236230 0.0 101718